KK7N Weather Reports


time (UTC)temp
F
wind
direction
speed
knots
gust
knots
rain 1hr
in
rain 24hr
in
rain mn
in
humidity
%
barometer
mb
20260504200041 67 249 1.7 7.8 0.00 0.00 0.00 68 1013.3
20260504194545 66 228 3.5 9.6 0.00 0.00 0.00 67 1013.4
20260504193049 65 207 1.7 6.1 0.00 0.00 0.00 71 1013.4
20260504191543 64 247 2.6 7.0 0.00 0.00 0.00 70 1013.6
20260504190105 64 252 3.5 7.8 0.00 0.00 0.00 72 1013.7
20260504184548 63 213 1.7 8.7 0.00 0.00 0.00 73 1013.9
20260504183045 62 283 4.3 9.6 0.00 0.00 0.00 73 1013.8
20260504181544 62 220 4.3 7.8 0.00 0.00 0.00 74 1013.8
20260504180044 61 285 2.6 7.8 0.00 0.00 0.00 75 1013.8
20260504174544 60 275 1.7 4.3 0.00 0.00 0.00 76 1013.8
20260504173044 60 200 4.3 7.8 0.00 0.00 0.00 76 1013.8
20260504171543 59 229 2.6 6.1 0.00 0.00 0.00 79 1013.8
20260504110120 60 0 0.9 5.2 0.00 0.00 0.00 76 1009.9
20260504081540 61 97 0.0 2.6 0.00 0.00 0.00 79 1008.6
20260504050114 70 0 0.0 0.0 0.00 0.00 0.00 64 1007.3
20260504044546 71 0 0.0 1.7 0.00 0.00 0.00 62 1007.2
20260504043039 73 0 0.0 2.6 0.00 0.00 0.00 60 1007.0
20260504041548 74 294 0.0 1.7 0.00 0.00 0.00 55 1006.8
20260504040055 77 0 0.0 1.7 0.00 0.00 0.00 52 1006.7
20260504034544 80 0 0.0 0.0 0.00 0.00 0.00 46 1006.7
20260504033043 82 294 0.0 0.9 0.00 0.00 0.00 41 1006.5
20260504031558 84 293 0.0 2.6 0.00 0.00 0.00 38 1006.4
20260504030048 85 293 1.7 4.3 0.00 0.00 0.00 34 1006.3
20260504024548 86 309 0.9 4.3 0.00 0.00 0.00 34 1006.1
20260504023043 87 302 1.7 4.3 0.00 0.00 0.00 32 1006.2
20260504021547 88 316 1.7 6.1 0.00 0.00 0.00 31 1006.3
20260504020047 89 297 2.6 7.8 0.00 0.00 0.00 30 1006.3
20260504014557 90 338 5.2 11.3 0.00 0.00 0.00 27 1006.4
20260504013107 91 318 4.3 9.6 0.00 0.00 0.00 30 1006.4
20260504011545 92 323 2.6 9.6 0.00 0.00 0.00 30 1006.3
20260504010046 92 323 0.9 9.6 0.00 0.00 0.00 27 1006.5
20260504004547 92 337 2.6 9.6 0.00 0.00 0.00 27 1006.6
20260504003046 92 344 1.7 7.8 0.00 0.00 0.00 28 1006.6
20260504001551 93 300 3.5 8.7 0.00 0.00 0.00 25 1006.6
20260504000045 92 288 3.5 8.7 0.00 0.00 0.00 27 1006.8
20260503234550 91 0 1.7 7.0 0.00 0.00 0.00 31 1006.9
20260503233052 91 0 1.7 5.2 0.00 0.00 0.00 28 1007.0
20260503231545 90 325 0.9 5.2 0.00 0.00 0.00 33 1007.3
20260503230045 89 0 0.0 2.6 0.00 0.00 0.00 31 1007.4
20260503224545 89 360 0.9 2.6 0.00 0.00 0.00 31 1007.7
20260503223048 89 0 0.9 2.6 0.00 0.00 0.00 30 1008.1
20260503221555 88 0 0.0 3.5 0.00 0.00 0.00 32 1008.2
20260503220056 88 0 0.0 3.5 0.00 0.00 0.00 34 1008.6
20260503214551 89 0 0.0 1.7 0.00 0.00 0.00 40 1008.6
20260503213049 89 0 0.9 4.3 0.00 0.00 0.00 37 1008.8
20260503211547 88 0 0.0 2.6 0.00 0.00 0.00 40 1009.0
20260503210053 87 0 0.0 1.7 0.00 0.00 0.00 37 1009.2
20260503204558 87 0 0.0 4.3 0.00 0.00 0.00 41 1009.5
20260503203053 86 325 1.7 7.0 0.00 0.00 0.00 42 1009.6
20260503201546 85 333 1.7 7.0 0.00 0.00 0.00 45 1009.8